Snowfall_Accumulation
1.7 0.9 1.0 1.1 1.4 3.3 2.8 3.0 5.4 6.3 8.2 7.3 7.7 9.0 11.8 12.2 8.6 5.5 3.0 2.4 1.6 1.5 1.0 0.7 1.3 1.0 1.5 1.5 1.4 1.8 1.9 1.7 1.5 0.1 0.0 0.0 0.0 0.0 0.0 0.0 0.0 0.0 0.0
2.2 1.3 1.6 1.7 2.3 5.0 4.4 4.6 4.6 4.9 5.5 6.0 5.5 4.7 5.5 5.3 3.9 1.9 1.4 1.3 0.7 1.3 1.3 1.1 1.6 0.9 2.5 2.4 2.1 1.8 1.2 0.9 1.2 0.2 0.0 0.0 0.0 0.0 0.0 0.0 0.0 0.0 0.0
3.0 1.8 1.8 2.3 2.0 3.3 4.6 3.5 3.0 2.1 2.3 2.7 1.9 2.2 1.8 2.6 2.4 2.0 1.4 1.9 2.3 2.5 2.7 3.2 3.4 2.8 2.4 1.7 1.6 1.5 1.3 0.8 1.4 1.6 0.3 0.0 0.0 0.0 0.0 0.0 0.0 0.0 0.0
4.2 2.7 2.8 2.8 2.4 2.2 2.5 2.5 1.9 2.1 2.1 1.3 2.1 2.3 2.0 1.9 3.1 3.7 4.3 4.7 4.2 3.3 2.8 2.5 2.1 1.9 1.7 1.6 1.3 1.3 1.1 0.9 0.7 0.7 0.3 0.1 0.1 0.1 0.1 0.1 0.2 0.1 0.1
5.6 4.1 4.5 3.8 2.8 3.5 3.8 3.9 2.6 2.4 2.7 2.5 2.7 3.0 3.3 3.6 2.8 3.5 3.5 3.7 3.4 3.1 2.5 2.2 2.0 1.3 nan nan 0.8 0.3 0.3 0.3 0.3 0.2 0.2 0.2 0.1 0.2 0.3 0.2 0.4 0.2 0.2
7.5 8.3 7.7 4.5 3.9 3.5 2.6 2.5 1.7 2.6 3.1 3.1 3.7 3.3 3.2 2.1 nan nan 2.8 2.6 2.5 2.3 2.1 1.9 1.3 0.5 0.1 nan nan nan nan 0.0 0.0 0.5 0.3 0.3 0.0 0.3 0.4 0.6 0.9 1.8 2.5
3.2 3.4 2.9 3.0 2.6 2.5 1.9 1.8 2.5 3.3 1.9 2.9 2.7 2.4 2.3 2.2 nan nan nan 1.3 1.2 0.7 0.5 0.1 0.0 0.0 0.1 0.0 nan nan nan nan nan 0.0 0.1 0.2 0.2 0.0 0.2 0.6 0.5 1.3 1.1
2.6 2.1 2.1 1.9 1.9 1.5 1.3 1.8 1.6 1.7 1.6 1.4 1.4 1.3 1.0 0.5 nan nan nan 0.0 0.0 0.0 0.0 0.0 0.0 0.0 0.0 0.0 0.0 0.0 0.1 0.1 0.1 0.0 0.1 0.2 0.1 0.3 0.8 0.6 0.9 0.8 1.4
2.4 2.2 2.1 1.3 1.5 1.0 1.1 1.1 1.2 1.2 1.2 1.2 1.1 0.7 0.5 0.1 nan nan 0.0 0.0 0.0 0.0 0.0 0.0 0.0 0.0 nan nan 0.0 0.1 0.2 0.1 nan nan nan nan nan nan nan 3.4 10.3 13.6 8.0
0.8 0.9 1.0 0.8 0.8 0.9 0.6 0.7 0.7 0.4 0.3 0.7 0.1 0.1 0.0 0.1 nan nan nan 0.4 0.1 0.5 0.1 0.1 0.1 0.0 nan nan 0.1 0.2 1.0 0.5 0.5 1.4 0.6 0.3 nan nan nan 0.9 4.7 15.3 10.8
0.4 0.2 0.2 0.3 0.6 0.2 0.3 0.2 0.4 0.5 0.2 0.7 0.9 0.4 0.5 0.1 0.0 nan nan 0.2 0.7 1.5 1.5 1.2 0.8 nan nan nan nan 1.0 1.7 1.1 3.8 3.7 3.0 3.4 2.8 2.0 2.4 2.3 2.3 5.6 10.7
0.6 0.8 0.9 1.6 0.8 0.7 2.7 1.3 2.1 1.7 1.9 1.9 2.2 1.8 1.5 0.3 nan nan nan nan nan 2.6 1.4 1.2 0.9 nan nan nan 1.3 nan nan 2.2 6.2 7.7 7.5 6.1 5.0 4.7 4.1 3.8 2.1 2.8 3.4
2.7 4.3 3.7 2.8 2.2 2.0 3.5 2.2 3.9 2.7 3.9 2.2 3.3 3.3 3.0 2.4 2.0 nan nan nan nan 2.5 2.0 1.7 nan nan nan nan nan nan 2.2 5.9 7.3 10.6 7.3 5.3 4.0 4.4 4.1 5.1 3.5 4.2 4.2
5.0 2.6 1.8 2.3 1.3 1.7 2.3 2.8 4.4 4.2 4.0 4.4 5.4 5.2 3.8 3.6 2.7 3.1 4.3 3.4 2.3 4.1 nan 4.0 nan 3.2 nan nan 4.4 4.3 4.5 5.1 7.4 8.3 7.5 5.8 6.5 7.5 7.2 5.3 7.6 6.7 11.4
3.2 1.9 2.3 3.0 3.1 2.0 1.8 3.0 2.7 1.2 3.3 7.8 9.4 7.3 10.0 10.3 5.8 2.1 5.9 7.4 5.9 5.4 5.8 9.3 9.3 7.0 5.8 5.6 6.2 6.4 6.7 7.1 8.6 7.7 9.7 11.0 10.4 9.2 8.8 7.0 7.9 10.9 13.3
2.1 3.6 3.2 3.1 3.1 2.9 3.3 4.1 nan nan nan nan nan 4.7 6.2 nan nan nan nan nan nan nan 14.9 16.3 10.2 8.3 7.2 7.1 8.2 8.5 7.7 7.1 8.0 9.6 11.3 11.0 11.2 11.0 10.8 12.1 11.7 13.9 15.9
5.0 4.0 5.1 4.5 5.1 5.4 5.7 6.5 8.5 5.6 nan nan nan nan nan nan nan nan nan nan nan nan 22.9 13.5 11.7 9.5 9.1 7.8 8.8 9.0 10.4 8.7 7.2 11.4 10.2 11.1 12.5 13.4 14.8 14.8 13.7 12.0 15.6
7.3 2.6 7.6 7.5 7.0 7.8 8.0 8.3 8.8 11.4 13.0 10.3 nan nan nan nan nan nan nan nan 26.0 nan 18.8 19.5 17.2 14.2 11.6 11.5 10.2 10.6 10.7 11.0 11.1 11.5 12.0 14.4 16.8 19.1 19.5 18.2 14.7 17.8 17.9
9.5 8.5 8.9 8.7 8.7 8.9 9.7 9.7 10.5 10.8 10.8 12.3 12.2 12.0 6.3 nan nan nan nan 15.6 20.4 19.6 20.0 20.6 17.3 16.9 14.8 15.1 14.5 15.8 14.7 16.0 15.5 19.3 19.2 20.4 19.5 21.0 22.6 16.7 14.7 9.5 10.7
11.7 4.8 8.7 12.7 12.1 11.4 9.6 11.3 11.1 10.8 11.5 12.2 12.7 11.7 16.7 16.0 21.0 20.8 17.9 22.4 22.2 21.5 19.7 21.7 21.7 22.8 23.8 22.7 22.6 21.5 22.6 23.2 22.1 22.6 22.9 21.9 21.1 22.7 20.3 22.3 20.1 19.5 19.5
16.3 14.3 3.7 13.5 15.9 16.6 16.4 14.6 13.2 15.3 14.3 17.1 15.3 15.0 nan 21.8 22.0 21.8 22.5 23.4 24.3 26.3 24.1 24.5 25.4 29.4 29.4 31.5 29.1 29.1 27.6 21.2 23.7 25.3 26.0 26.3 25.8 31.3 21.3 17.7 20.6 21.0 21.6
17.8 18.4 18.4 19.7 15.8 16.3 18.3 15.6 17.0 17.6 17.7 16.4 14.6 15.5 nan 17.4 18.4 19.6 21.5 25.0 28.1 28.0 29.8 32.9 32.4 33.8 31.6 30.8 29.6 28.2 25.4 27.4 28.1 27.5 25.0 24.9 27.1 24.8 24.7 20.6 20.6 18.9 22.7
18.7 17.7 17.8 17.6 17.4 7.8 18.7 20.3 19.0 18.6 18.0 19.0 18.1 18.0 19.6 22.8 21.3 20.6 25.4 26.6 23.8 23.3 24.5 25.9 24.7 24.5 22.9 25.4 23.7 24.2 26.5 27.1 27.4 32.1 27.7 27.2 26.0 28.3 25.9 25.2 23.0 26.2 24.7
17.4 17.6 17.3 19.8 18.7 17.0 18.5 19.2 17.8 7.2 18.7 19.8 25.6 22.8 16.6 19.2 24.3 20.8 20.9 23.1 20.5 28.2 23.2 24.3 21.9 22.0 23.3 29.2 33.9 33.6 35.7 37.1 36.7 35.7 32.9 29.6 30.3 22.5 25.5 27.8 23.5 23.0 22.9
17.8 16.7 16.9 16.6 21.2 18.5 17.6 19.6 15.7 19.1 21.4 17.8 20.6 16.3 17.1 16.4 18.0 22.7 21.7 19.2 21.0 19.8 18.1 18.1 19.0 20.0 20.7 21.6 26.3 30.1 28.2 5.0 20.5 5.4 35.0 29.2 31.5 30.4 30.0 28.1 25.2 23.8 22.7
15.5 16.0 16.2 16.1 15.9 16.8 17.5 17.2 17.6 14.9 17.6 18.2 17.6 17.7 16.4 16.6 16.7 18.9 19.0 19.8 18.2 18.2 18.9 19.9 20.5 19.8 19.3 20.6 21.1 7.8 4.8 4.4 27.9 4.9 28.1 27.0 30.3 29.2 27.8 28.6 27.9 27.4 24.3
Water_Equivalent
0.29 0.17 0.16 0.18 0.21 0.49 0.40 0.45 0.86 1.01 1.33 1.10 1.10 1.33 1.68 1.79 1.23 0.75 0.44 0.37 0.26 0.21 0.16 0.13 0.24 0.21 0.33 0.31 0.29 0.37 0.37 0.32 0.21 0.03 0.00 0.00 0.01 0.01 0.01 0.00 0.00 0.00 0.00
0.53 0.28 0.29 0.26 0.35 0.86 0.68 0.64 0.68 0.73 0.88 0.94 0.95 0.77 0.98 0.84 0.56 0.26 0.16 0.17 0.10 0.21 0.25 0.24 0.32 0.18 0.46 0.45 0.36 0.27 0.18 0.15 0.18 0.02 0.00 0.00 0.00 0.00 0.00 0.01 0.00 0.00 0.00
0.74 0.41 0.35 0.45 0.36 0.69 0.89 0.70 0.55 0.39 0.41 0.55 0.41 0.49 0.39 0.59 0.50 0.42 0.29 0.40 0.54 0.58 0.59 0.60 0.62 0.47 0.36 0.25 0.23 0.21 0.19 0.12 0.20 0.22 0.05 0.01 0.00 0.01 0.01 0.01 0.00 0.00 0.00
1.00 0.51 0.46 0.54 0.46 0.39 0.43 0.50 0.32 0.40 0.42 0.20 0.33 0.42 0.38 0.42 0.69 0.83 0.98 1.04 0.81 0.65 0.53 0.40 0.31 0.27 0.24 0.23 0.19 0.18 0.15 0.14 0.10 0.12 0.06 0.03 0.03 0.03 0.04 0.05 0.06 0.04 0.04
1.18 0.68 0.67 0.66 0.45 0.55 0.52 0.62 0.38 0.36 0.46 0.42 0.51 0.67 0.75 0.84 0.67 0.80 0.72 0.71 0.55 0.44 0.36 0.33 0.29 0.27 nan nan 0.13 0.05 0.04 0.05 0.07 0.07 0.06 0.06 0.05 0.08 0.08 0.06 0.12 0.07 0.06
1.10 1.18 1.00 0.57 0.48 0.40 0.31 0.32 0.30 0.60 0.73 0.74 0.89 0.76 0.65 0.42 nan nan 0.45 0.40 0.37 0.33 0.30 0.28 0.20 0.09 0.02 nan nan nan nan 0.00 0.01 0.14 0.09 0.07 0.01 0.08 0.12 0.16 0.21 0.38 0.38
0.41 0.36 0.31 0.31 0.28 0.31 0.23 0.22 0.38 0.52 0.31 0.47 0.44 0.41 0.38 0.37 nan nan nan 0.20 0.17 0.10 0.08 0.02 0.01 0.00 0.02 0.00 nan nan nan nan nan 0.00 0.02 0.03 0.02 0.01 0.02 0.08 0.07 0.22 0.21
0.29 0.24 0.23 0.21 0.25 0.22 0.18 0.27 0.27 0.27 0.27 0.23 0.22 0.19 0.14 0.07 nan nan nan 0.01 0.00 0.00 0.01 0.01 0.00 0.00 0.00 0.00 0.00 0.01 0.01 0.01 0.01 0.01 0.02 0.02 0.02 0.04 0.10 0.07 0.10 0.11 0.33
0.30 0.31 0.30 0.22 0.25 0.18 0.19 0.18 0.21 0.19 0.18 0.20 0.18 0.15 0.12 0.02 nan nan 0.00 0.00 0.00 0.00 0.00 0.00 0.00 0.00 nan nan 0.01 0.02 0.03 0.02 nan nan nan nan nan nan nan 0.71 2.28 2.63 1.38
0.12 0.13 0.15 0.16 0.17 0.18 0.13 0.13 0.14 0.10 0.08 0.17 0.02 0.03 0.01 0.02 nan nan nan 0.15 0.02 0.14 0.01 0.01 0.03 0.01 nan nan 0.01 0.03 0.17 0.05 0.06 0.30 0.10 0.04 nan nan nan 0.10 0.83 2.46 1.58
0.09 0.05 0.05 0.06 0.12 0.05 0.06 0.05 0.07 0.09 0.05 0.13 0.16 0.10 0.12 0.03 0.01 nan nan 0.06 0.21 0.37 0.35 0.27 0.18 nan nan nan nan 0.13 0.20 0.14 0.73 0.70 0.54 0.62 0.43 0.30 0.43 0.35 0.26 0.74 1.39
0.08 0.09 0.12 0.24 0.14 0.12 0.48 0.22 0.40 0.29 0.32 0.33 0.39 0.36 0.34 0.07 nan nan nan nan nan 0.64 0.28 0.25 0.20 nan nan nan 0.30 nan nan 0.47 1.35 1.53 1.40 1.07 0.81 0.71 0.57 0.52 0.21 0.33 0.42
0.36 0.61 0.56 0.45 0.36 0.33 0.61 0.34 0.67 0.45 0.67 0.34 0.56 0.54 0.47 0.46 0.44 nan nan nan nan 0.55 0.43 0.34 nan nan nan nan nan nan 0.72 1.08 1.31 1.78 1.15 0.76 0.54 0.56 0.43 0.56 0.34 0.42 0.40
0.80 0.36 0.24 0.33 0.23 0.26 0.45 0.53 0.85 0.74 0.66 0.74 0.92 0.88 0.60 0.58 0.47 0.56 0.87 0.69 0.61 0.79 nan 0.75 nan 0.57 nan nan 0.81 0.67 0.70 0.77 0.99 1.10 0.96 0.70 0.77 0.91 0.91 0.67 0.95 0.82 1.44
0.47 0.24 0.32 0.47 0.51 0.29 0.27 0.52 0.44 0.19 0.58 1.31 1.67 1.22 1.55 1.53 0.96 0.37 1.17 1.51 1.29 1.18 1.31 1.76 1.58 1.10 0.90 0.83 0.95 0.91 0.92 1.02 1.19 1.05 1.26 1.29 1.22 1.08 1.05 0.86 0.95 1.29 1.63
0.24 0.45 0.45 0.45 0.43 0.39 0.42 0.48 nan nan nan nan nan 0.89 1.26 nan nan nan nan nan nan nan 2.97 2.86 1.48 1.15 0.92 0.88 1.02 1.02 0.96 1.00 1.01 1.22 1.42 1.33 1.29 1.23 1.22 1.34 1.37 1.63 1.77
0.61 0.42 0.62 0.56 0.58 0.64 0.68 0.79 0.95 0.66 nan nan nan nan nan nan nan nan nan nan nan nan 4.16 2.05 1.59 1.16 1.09 0.88 1.02 0.99 1.08 0.96 0.75 1.35 1.20 1.28 1.48 1.59 1.85 1.69 1.52 1.33 1.93
0.80 0.87 0.89 0.87 0.83 0.93 0.98 1.04 1.11 1.35 1.50 1.18 nan nan nan nan nan nan nan nan 4.30 nan 3.00 2.97 2.47 1.93 1.45 1.36 1.16 1.16 1.16 1.19 1.18 1.27 1.35 1.81 2.18 2.41 2.37 2.27 1.75 2.25 2.26
0.97 0.89 0.95 0.96 0.94 0.99 1.12 1.07 1.18 1.15 1.15 1.40 1.41 1.47 1.30 nan nan nan nan 2.47 3.22 2.87 2.89 2.97 2.38 2.24 1.84 1.92 1.83 2.06 1.77 1.89 1.83 2.48 2.52 2.75 2.54 2.74 2.93 2.09 1.73 1.56 1.72
1.10 1.20 1.16 1.40 1.20 1.09 0.89 1.09 1.03 1.03 1.11 1.27 1.34 1.25 2.12 2.32 3.09 3.14 2.62 3.50 3.44 3.15 2.74 3.08 3.12 3.37 3.54 3.33 3.26 3.00 3.08 3.16 2.90 3.00 3.00 2.88 2.76 3.02 2.33 2.89 2.53 2.28 2.43
1.71 1.42 1.22 1.31 1.68 1.82 1.82 1.50 1.31 1.61 1.47 1.86 1.57 1.58 nan 2.58 2.68 2.80 3.12 3.01 3.33 3.67 3.14 3.35 3.48 4.33 4.50 4.93 4.22 4.07 3.79 2.55 3.03 3.27 3.44 3.46 3.35 4.17 2.63 1.93 2.55 2.69 2.66
1.88 1.99 2.00 2.16 1.55 1.64 1.94 1.52 1.71 1.78 1.72 1.52 1.35 1.57 nan 1.79 1.91 2.07 2.31 2.97 3.56 3.53 3.93 4.54 4.45 4.84 4.33 4.08 3.72 3.50 2.95 3.39 3.62 3.38 2.82 2.90 3.37 2.98 3.00 2.20 2.28 2.03 2.67
1.86 1.64 1.70 1.67 1.65 1.64 1.85 2.14 1.91 1.85 1.72 1.88 1.72 1.67 1.91 2.42 2.15 2.02 2.90 3.15 2.58 2.46 2.75 2.98 2.79 2.72 2.54 2.96 2.67 2.67 2.89 3.13 3.23 4.25 3.03 3.09 2.92 3.39 3.07 2.83 2.52 2.87 2.72
1.61 1.63 1.60 2.03 1.82 1.54 1.78 1.88 1.65 1.68 1.76 1.91 2.92 2.41 1.48 1.86 2.67 2.00 2.09 2.47 2.05 3.48 2.50 2.69 2.23 2.21 2.47 3.69 4.72 4.67 5.09 5.39 5.16 4.78 4.26 3.09 3.09 2.54 2.59 3.04 2.45 2.44 2.18
1.71 1.50 1.54 1.47 2.23 1.77 1.65 1.97 1.38 1.90 2.26 1.74 2.19 1.54 1.60 1.48 1.71 2.52 2.34 1.91 2.18 2.01 1.75 1.74 1.85 1.97 2.05 2.17 3.00 3.84 4.04 1.65 3.04 1.79 4.01 2.92 3.34 3.32 3.19 2.85 2.58 2.28 2.11
1.37 1.43 1.47 1.49 1.45 1.62 1.72 1.68 1.76 1.37 1.77 1.89 1.77 1.79 1.55 1.56 1.60 1.99 1.90 1.96 1.65 1.70 1.80 1.96 2.00 1.85 1.76 1.97 2.08 1.89 1.58 1.44 3.46 1.61 3.14 2.69 3.08 2.85 2.73 2.82 2.68 2.61 2.20
SL_Ratio
6.1 5.6 6.1 6.3 6.7 6.6 7.0 6.7 6.3 6.3 6.2 6.6 7.0 6.7 7.0 6.8 7.0 7.3 6.9 6.5 6.2 7.0 6.1 5.5 5.4 4.7 4.8 4.7 4.8 4.9 5.2 5.4 7.0 5.7 nan nan 4.2 4.5 4.4 nan nan nan nan
4.2 4.9 5.5 6.4 6.4 5.8 6.5 7.2 6.8 6.7 6.3 6.4 5.7 6.1 5.6 6.3 6.9 7.3 8.5 7.7 6.8 6.0 5.3 4.7 5.0 5.1 5.4 5.4 5.7 6.7 6.6 5.9 6.4 7.3 nan 5.0 5.0 nan nan 4.5 nan nan nan
4.0 4.3 5.2 5.1 5.5 4.8 5.2 5.0 5.5 5.2 5.5 4.9 4.7 4.5 4.6 4.3 4.8 4.8 4.8 4.7 4.3 4.3 4.6 5.3 5.5 6.0 6.5 6.8 6.9 7.1 7.0 6.4 6.9 7.0 6.1 4.4 2.9 2.2 2.5 2.2 nan nan nan
4.2 5.3 6.0 5.3 5.3 5.6 5.7 5.0 6.0 5.2 5.1 6.6 6.3 5.5 5.2 4.5 4.6 4.4 4.4 4.6 5.2 5.1 5.2 6.2 6.8 7.0 7.1 7.0 7.0 7.1 6.9 6.6 6.3 6.0 4.4 2.8 2.6 2.6 2.5 2.6 2.9 2.5 2.5
4.7 5.9 6.8 5.8 6.2 6.4 7.3 6.4 6.9 6.8 5.9 5.8 5.3 4.4 4.4 4.3 4.2 4.4 4.9 5.3 6.2 6.9 6.9 6.6 6.8 4.6 nan nan 6.5 6.7 6.8 5.9 3.5 3.2 3.1 2.9 2.8 3.0 3.2 3.1 3.1 2.8 2.9
6.8 7.1 7.7 7.9 8.1 8.8 8.4 7.8 5.7 4.4 4.2 4.2 4.1 4.4 4.8 4.9 nan nan 6.3 6.6 6.7 6.9 7.1 6.9 6.8 5.3 6.4 nan nan nan nan 7.5 6.0 3.4 3.5 4.0 5.0 3.1 3.0 3.6 4.3 4.7 6.5
7.9 9.5 9.3 9.6 9.2 8.1 8.1 8.0 6.7 6.4 6.1 6.2 6.0 5.9 6.0 6.0 nan nan nan 6.6 6.8 6.8 6.8 6.5 6.9 6.3 3.0 5.0 nan nan nan nan nan 7.5 8.1 5.1 7.8 6.8 7.9 7.5 7.4 5.7 5.1
8.8 8.5 8.9 9.3 7.4 6.7 7.1 6.6 5.9 6.2 6.2 6.0 6.5 7.0 6.9 6.4 nan nan nan 5.5 6.7 7.1 7.2 7.8 7.5 5.0 7.5 5.0 5.0 5.6 5.9 5.9 6.1 6.4 6.7 6.8 6.9 7.1 7.7 8.0 8.8 7.1 4.3
7.9 7.3 6.8 5.9 5.9 5.4 5.8 5.7 5.8 6.1 6.3 6.2 6.0 4.7 4.6 4.0 nan nan nan 5.0 5.0 5.0 5.0 nan nan 5.0 nan nan 5.0 5.5 6.5 7.0 nan nan nan nan nan nan nan 4.7 4.5 5.2 5.8
6.7 6.7 6.4 5.1 5.0 5.2 4.9 5.1 5.0 4.4 4.4 4.0 4.4 3.6 3.6 3.7 nan nan nan 2.5 3.9 3.3 4.3 4.4 3.4 4.4 nan nan 5.7 5.6 6.1 8.8 7.2 4.6 5.8 7.5 nan nan nan 8.6 5.7 6.2 6.8
4.7 4.3 5.0 4.5 5.2 4.3 4.7 5.0 4.9 5.2 5.3 5.3 5.4 4.5 4.3 3.6 3.2 nan nan 2.8 3.5 4.1 4.3 4.6 4.6 nan nan nan nan 7.2 8.6 8.2 5.2 5.3 5.5 5.5 6.3 6.7 5.6 6.5 9.0 7.5 7.7
8.5 8.4 7.9 6.5 6.1 6.1 5.6 5.9 5.3 5.7 5.8 5.8 5.7 5.0 4.4 5.0 nan nan nan nan nan 4.0 4.9 4.6 4.4 nan nan nan 4.2 nan nan 4.7 4.6 5.0 5.4 5.7 6.2 6.6 7.2 7.3 10.2 8.5 8.1
7.6 7.0 6.7 6.3 6.2 6.1 5.7 6.5 5.8 6.0 5.8 6.4 5.9 6.0 6.3 5.3 4.5 nan nan nan nan 4.5 4.7 5.0 nan nan nan nan nan nan 3.0 5.5 5.6 6.0 6.4 6.9 7.4 8.0 9.4 9.1 10.3 10.0 10.6
6.3 7.2 7.4 6.9 6.0 6.3 5.3 5.2 5.2 5.7 6.1 6.0 5.9 6.0 6.3 6.2 5.7 5.6 5.0 5.0 3.8 5.1 nan 5.3 nan 5.7 nan nan 5.5 6.4 6.3 6.7 7.5 7.5 7.8 8.3 8.5 8.3 7.9 7.8 8.0 8.1 7.9
6.7 8.1 7.2 6.3 6.0 7.0 6.7 5.9 6.2 6.4 5.8 6.0 5.7 6.0 6.5 6.7 6.0 5.8 5.0 4.9 4.6 4.6 4.4 5.3 5.9 6.4 6.5 6.7 6.5 7.0 7.2 6.9 7.3 7.3 7.7 8.6 8.5 8.5 8.4 8.1 8.3 8.5 8.2
8.8 7.9 7.2 6.8 7.2 7.4 7.7 8.6 nan nan nan nan nan 5.3 4.9 nan nan nan nan nan nan nan 5.0 5.7 6.9 7.2 7.8 8.0 8.0 8.3 8.0 7.1 7.9 7.9 7.9 8.3 8.7 8.9 8.9 9.0 8.5 8.6 9.0
8.1 9.5 8.2 8.0 8.8 8.4 8.3 8.3 8.9 8.4 nan nan nan nan nan nan nan nan nan nan nan nan 5.5 6.6 7.4 8.2 8.4 8.9 8.6 9.1 9.6 9.1 9.6 8.4 8.5 8.6 8.5 8.4 8.0 8.8 9.0 9.1 8.1
9.1 3.0 8.5 8.6 8.5 8.5 8.1 8.0 8.0 8.5 8.7 8.7 nan nan nan nan nan nan nan nan 6.0 nan 6.3 6.6 7.0 7.4 8.0 8.5 8.9 9.2 9.2 9.3 9.4 9.0 8.8 7.9 7.7 7.9 8.2 8.0 8.4 7.9 7.9
9.8 9.5 9.4 9.1 9.3 9.0 8.6 9.1 8.9 9.4 9.5 8.8 8.6 8.2 4.9 nan nan nan nan 6.3 6.3 6.8 6.9 6.9 7.3 7.5 8.0 7.9 7.9 7.7 8.3 8.5 8.4 7.8 7.6 7.4 7.7 7.6 7.7 8.0 8.5 6.1 6.2
10.6 4.0 7.5 9.0 10.1 10.5 10.9 10.3 10.7 10.5 10.4 9.6 9.4 9.3 7.9 6.9 6.8 6.6 6.8 6.4 6.5 6.8 7.2 7.0 7.0 6.8 6.7 6.8 6.9 7.2 7.3 7.3 7.6 7.5 7.6 7.6 7.7 7.5 8.7 7.7 7.9 8.5 8.0
9.6 10.1 3.0 10.3 9.4 9.1 9.1 9.7 10.1 9.5 9.7 9.2 9.7 9.5 nan 8.4 8.2 7.8 7.2 7.8 7.3 7.2 7.7 7.3 7.3 6.8 6.5 6.4 6.9 7.2 7.3 8.3 7.8 7.7 7.5 7.6 7.7 7.5 8.1 9.2 8.1 7.8 8.1
9.5 9.2 9.2 9.1 10.1 10.0 9.4 10.3 9.9 9.9 10.3 10.8 10.9 9.9 nan 9.7 9.7 9.5 9.3 8.4 7.9 7.9 7.6 7.3 7.3 7.0 7.3 7.6 7.9 8.1 8.6 8.1 7.8 8.1 8.9 8.6 8.0 8.3 8.2 9.4 9.0 9.3 8.5
10.1 10.7 10.5 10.6 10.6 4.7 10.1 9.5 10.0 10.1 10.5 10.1 10.5 10.8 10.3 9.4 9.9 10.2 8.7 8.5 9.2 9.5 8.9 8.7 8.9 9.0 9.0 8.6 8.9 9.1 9.2 8.7 8.5 7.6 9.1 8.8 8.9 8.4 8.5 8.9 9.2 9.1 9.1
10.8 10.8 10.8 9.7 10.3 11.0 10.4 10.2 10.8 4.3 10.6 10.4 8.8 9.5 11.2 10.3 9.1 10.4 10.0 9.3 10.0 8.1 9.3 9.0 9.8 9.9 9.4 7.9 7.2 7.2 7.0 6.9 7.1 7.5 7.7 9.6 9.8 8.9 9.9 9.1 9.6 9.4 10.5
10.4 11.1 11.0 11.2 9.5 10.5 10.7 10.0 11.4 10.0 9.5 10.3 9.4 10.6 10.7 11.1 10.6 9.0 9.3 10.0 9.6 9.8 10.3 10.4 10.3 10.2 10.1 9.9 8.8 7.8 7.0 3.0 6.7 3.0 8.7 10.0 9.4 9.2 9.4 9.9 9.8 10.4 10.7
11.3 11.2 11.0 10.8 10.9 10.4 10.1 10.2 10.0 10.9 9.9 9.6 10.0 9.9 10.6 10.6 10.4 9.5 10.0 10.1 11.0 10.7 10.5 10.1 10.2 10.7 11.0 10.5 10.2 4.1 3.0 3.0 8.1 3.0 9.0 10.0 9.8 10.2 10.2 10.1 10.4 10.5 11.0